QPF
0.00 0.00 0.00 0.00 0.00 0.00 0.00 0.00 0.00 0.00 0.00 0.00 0.00 0.00 0.00 0.00 0.01 0.04 0.05 0.05 0.05 0.06 0.04 0.01 0.00 0.00 0.00 0.00 0.01 0.02 0.03 0.03 0.02 0.01 0.01 0.00 0.00 0.00 0.00 0.00 0.00 0.00 0.00
0.00 0.00 0.00 0.00 0.01 0.01 0.00 0.00 0.00 0.00 0.00 0.01 0.01 0.01 0.00 0.00 0.00 0.02 0.04 0.07 0.07 0.06 0.02 0.00 0.01 0.02 0.03 0.04 0.04 0.03 0.02 0.02 0.01 0.01 0.01 0.00 0.00 0.00 0.00 0.00 0.00 0.00 0.00
0.00 0.00 0.01 0.01 0.01 0.01 0.00 0.01 0.01 0.01 0.01 0.01 0.01 0.02 0.01 0.01 0.02 0.05 0.04 0.02 0.01 0.01 0.01 0.02 0.02 0.03 0.03 0.03 0.01 0.01 0.00 0.00 0.01 0.01 0.01 0.01 0.00 0.00 0.00 0.01 0.01 0.00 0.00
0.00 0.01 0.01 0.01 0.01 0.01 0.00 0.01 0.01 0.01 0.01 0.00 0.00 0.01 0.01 0.02 0.03 0.04 0.02 0.01 0.01 0.01 0.00 0.01 0.03 0.02 0.01 0.00 0.00 0.00 0.01 0.01 0.01 0.01 0.01 0.01 0.01 0.02 0.01 0.01 0.00 0.01 0.00
0.01 0.01 0.01 0.01 0.01 0.01 0.02 0.01 0.01 0.01 0.01 0.00 0.00 0.00 0.00 0.00 0.00 0.00 0.00 0.00 0.00 0.00 0.02 0.03 0.01 0.00 0.00 0.00 0.00 0.00 0.01 0.02 0.02 0.01 0.01 0.02 0.01 0.01 0.01 0.01 0.02 0.01 0.01
0.01 0.01 0.01 0.00 0.00 0.02 0.02 0.02 0.02 0.02 0.01 0.00 0.00 0.00 0.00 0.00 0.00 0.00 0.00 0.00 0.01 0.03 0.03 0.00 0.00 0.00 0.00 0.00 0.00 0.00 0.00 0.01 0.02 0.02 0.02 0.02 0.02 0.02 0.01 0.02 0.03 0.02 0.01
0.00 0.00 0.00 0.00 0.00 0.01 0.01 0.01 0.01 0.02 0.01 0.01 0.00 0.00 0.00 0.00 0.00 0.00 0.00 0.01 0.02 0.01 0.00 0.00 0.00 0.00 0.00 0.01 0.01 0.01 0.01 0.00 0.00 0.02 0.03 0.02 0.01 0.02 0.02 0.02 0.02 0.01 0.01
0.00 0.00 0.01 0.01 0.00 0.00 0.00 0.00 0.00 0.00 0.00 0.00 0.00 0.00 0.00 0.00 0.00 0.00 0.00 0.00 0.00 0.00 0.00 0.00 0.00 0.00 0.01 0.00 0.01 0.01 0.01 0.02 0.02 0.02 0.04 0.04 0.02 0.01 0.03 0.04 0.03 0.02 0.01
0.00 0.00 0.00 0.00 0.00 0.00 0.00 0.00 0.00 0.00 0.00 0.00 0.00 0.00 0.00 0.00 0.00 0.00 0.00 0.00 0.00 0.00 0.00 0.00 0.00 0.00 0.00 0.00 0.00 0.01 0.02 0.02 0.00 0.00 0.00 0.00 0.00 0.00 0.00 0.03 0.03 0.02 0.01
0.00 0.00 0.00 0.00 0.00 0.00 0.00 0.00 0.00 0.00 0.00 0.00 0.00 0.00 0.00 0.00 0.00 0.00 0.00 0.00 0.00 0.00 0.00 0.00 0.00 0.00 0.00 0.00 0.00 0.00 0.00 0.01 0.01 0.00 0.00 0.01 0.01 0.01 0.01 0.03 0.01 0.02 0.01
0.00 0.00 0.00 0.00 0.00 0.00 0.00 0.00 0.00 0.00 0.00 0.00 0.00 0.00 0.00 0.00 0.00 0.00 0.00 0.00 0.00 0.00 0.00 0.00 0.00 0.00 0.00 0.00 0.00 0.00 0.00 0.00 0.01 0.00 0.00 0.00 0.00 0.00 0.01 0.03 0.02 0.03 0.02
0.00 0.00 0.00 0.00 0.00 0.00 0.00 0.00 0.00 0.00 0.00 0.00 0.00 0.00 0.00 0.00 0.00 0.00 0.00 0.00 0.00 0.00 0.00 0.00 0.00 0.00 0.00 0.00 0.00 0.00 0.00 0.00 0.00 0.00 0.01 0.00 0.00 0.00 0.01 0.01 0.03 0.03 0.04
0.00 0.00 0.00 0.00 0.00 0.00 0.00 0.00 0.00 0.00 0.00 0.00 0.00 0.00 0.00 0.00 0.00 0.00 0.00 0.00 0.00 0.00 0.00 0.00 0.00 0.00 0.00 0.00 0.00 0.00 0.00 0.00 0.00 0.00 0.00 0.01 0.01 0.02 0.03 0.03 0.03 0.03 0.05
0.00 0.00 0.00 0.00 0.00 0.00 0.00 0.00 0.00 0.00 0.00 0.00 0.00 0.00 0.00 0.00 0.00 0.00 0.00 0.00 0.00 0.00 0.00 0.00 0.00 0.00 0.00 0.00 0.00 0.00 0.00 0.00 0.00 0.00 0.01 0.02 0.02 0.02 0.04 0.01 0.02 0.02 0.01
0.00 0.00 0.00 0.00 0.00 0.00 0.00 0.00 0.00 0.00 0.00 0.00 0.00 0.00 0.00 0.00 0.00 0.00 0.00 0.00 0.00 0.00 0.00 0.00 0.00 0.00 0.00 0.00 0.00 0.00 0.00 0.00 0.00 0.00 0.01 0.01 0.02 0.01 0.01 0.00 0.02 0.01 0.00
0.00 0.00 0.00 0.00 0.00 0.00 0.00 0.00 0.00 0.00 0.00 0.00 0.00 0.00 0.00 0.00 0.00 0.00 0.00 0.00 0.00 0.00 0.00 0.00 0.00 0.00 0.00 0.00 0.00 0.00 0.00 0.00 0.00 0.00 0.01 0.01 0.02 0.02 0.01 0.00 0.00 0.01 0.00
0.00 0.00 0.00 0.00 0.00 0.00 0.00 0.00 0.00 0.00 0.00 0.00 0.00 0.00 0.00 0.00 0.00 0.00 0.00 0.00 0.00 0.00 0.00 0.00 0.00 0.00 0.00 0.00 0.00 0.00 0.00 0.00 0.00 0.00 0.00 0.01 0.01 0.01 0.01 0.00 0.00 0.01 0.01
0.00 0.00 0.00 0.00 0.00 0.00 0.00 0.00 0.00 0.00 0.00 0.00 0.00 0.00 0.00 0.00 0.00 0.00 0.00 0.00 0.00 0.00 0.00 0.00 0.00 0.00 0.00 0.00 0.00 0.00 0.00 0.00 0.00 0.00 0.00 0.00 0.00 0.00 0.00 0.00 0.00 0.01 0.00
0.00 0.00 0.00 0.00 0.00 0.00 0.00 0.00 0.00 0.00 0.00 0.00 0.00 0.00 0.00 0.00 0.00 0.00 0.00 0.00 0.00 0.00 0.00 0.00 0.00 0.00 0.00 0.00 0.00 0.00 0.00 0.00 0.00 0.00 0.00 0.00 0.00 0.00 0.00 0.00 0.00 0.00 0.00
0.00 0.00 0.00 0.00 0.00 0.00 0.00 0.00 0.00 0.00 0.00 0.00 0.00 0.00 0.00 0.00 0.00 0.00 0.00 0.00 0.00 0.00 0.00 0.00 0.00 0.00 0.00 0.00 0.00 0.00 0.00 0.00 0.00 0.00 0.00 0.00 0.00 0.00 0.00 0.00 0.00 0.00 0.00
0.00 0.00 0.00 0.00 0.00 0.00 0.00 0.00 0.00 0.00 0.00 0.00 0.00 0.00 0.00 0.00 0.00 0.00 0.00 0.00 0.00 0.00 0.00 0.00 0.00 0.00 0.00 0.00 0.00 0.00 0.00 0.00 0.00 0.00 0.00 0.00 0.00 0.00 0.00 0.00 0.00 0.00 0.00
0.00 0.00 0.00 0.00 0.00 0.00 0.00 0.00 0.00 0.00 0.00 0.00 0.00 0.00 0.00 0.00 0.00 0.00 0.00 0.00 0.00 0.00 0.00 0.00 0.00 0.00 0.00 0.00 0.00 0.00 0.00 0.00 0.00 0.00 0.00 0.00 0.00 0.00 0.00 0.00 0.00 0.00 0.00
0.00 0.00 0.00 0.00 0.00 0.00 0.00 0.00 0.00 0.00 0.00 0.00 0.00 0.00 0.00 0.00 0.00 0.00 0.00 0.00 0.00 0.00 0.00 0.00 0.00 0.00 0.00 0.00 0.00 0.00 0.00 0.00 0.00 0.00 0.00 0.00 0.00 0.00 0.00 0.00 0.00 0.00 0.00
0.00 0.00 0.00 0.00 0.00 0.00 0.00 0.00 0.00 0.00 0.00 0.00 0.00 0.00 0.00 0.00 0.00 0.00 0.00 0.00 0.00 0.00 0.00 0.00 0.00 0.00 0.00 0.00 0.00 0.00 0.00 0.00 0.00 0.00 0.00 0.00 0.00 0.00 0.00 0.00 0.00 0.00 0.00
0.00 0.00 0.00 0.00 0.00 0.00 0.00 0.00 0.00 0.00 0.00 0.00 0.00 0.00 0.00 0.00 0.00 0.00 0.00 0.00 0.00 0.00 0.00 0.00 0.00 0.00 0.00 0.00 0.00 0.00 0.00 0.00 0.00 0.00 0.00 0.00 0.00 0.00 0.00 0.00 0.00 0.00 0.00
0.00 0.00 0.00 0.00 0.00 0.00 0.00 0.00 0.00 0.00 0.00 0.00 0.00 0.00 0.00 0.00 0.00 0.00 0.00 0.00 0.00 0.00 0.00 0.00 0.00 0.00 0.00 0.00 0.00 0.00 0.00 0.00 0.00 0.00 0.00 0.00 0.00 0.00 0.00 0.00 0.00 0.00 0.00
MSLP
1022.13 1022.11 1021.79 1021.49 1021.19 1020.80 1020.37 1019.94 1019.47 1018.96 1018.30 1017.62 1016.68 1015.92 1015.08 1014.44 1014.03 1013.81 1013.60 1013.63 1013.86 1013.93 1014.04 1014.12 1014.19 1014.63 1014.83 1014.55 1013.99 1013.54 1013.05 1012.65 1011.93 1011.74 1012.09 1012.06 1011.85 1011.90 1011.78 1011.54 1011.27 1010.97 1011.01
1022.73 1022.46 1022.15 1021.72 1021.15 1020.63 1020.14 1019.62 1019.15 1018.59 1017.89 1017.20 1016.57 1015.85 1014.74 1014.11 1013.67 1013.43 1013.26 1013.00 1013.11 1013.42 1013.80 1014.21 1014.25 1013.94 1013.82 1013.65 1013.23 1013.05 1012.77 1012.78 1012.58 1012.22 1012.16 1012.08 1011.95 1011.78 1011.71 1011.46 1011.01 1010.82 1010.62
1023.04 1022.76 1022.22 1021.82 1021.17 1020.60 1019.87 1019.35 1018.89 1018.13 1017.43 1017.11 1016.82 1015.67 1015.38 1013.96 1013.44 1013.14 1013.54 1013.45 1013.60 1013.75 1013.80 1013.56 1013.23 1013.22 1013.11 1013.66 1013.48 1012.96 1012.99 1013.05 1012.93 1012.62 1012.27 1012.23 1011.70 1011.58 1011.14 1010.90 1010.79 1010.49 1010.20
1022.98 1022.54 1021.74 1021.38 1020.93 1020.28 1019.70 1019.16 1018.59 1018.04 1017.38 1017.05 1016.84 1016.48 1015.96 1014.99 1014.43 1014.27 1014.00 1013.79 1013.73 1013.60 1013.58 1013.28 1013.15 1013.87 1013.94 1013.76 1013.66 1013.94 1013.73 1013.24 1012.82 1012.62 1011.96 1011.70 1011.44 1010.97 1010.74 1010.49 1010.06 1009.88 1009.54
1022.66 1022.28 1021.83 1021.44 1021.07 1020.50 1019.89 1019.29 1018.70 1018.08 1017.64 1017.33 1016.86 1016.40 1015.89 1015.25 1015.11 1015.05 1014.33 1013.78 1013.48 1013.28 1013.18 1014.07 1014.39 1014.48 1014.67 1014.56 1014.37 1014.12 1013.72 1013.01 1012.65 1012.28 1012.21 1011.68 1011.21 1010.73 1010.61 1010.22 1010.11 1009.73 1009.18
1023.23 1022.62 1022.02 1021.35 1020.78 1020.27 1019.92 1019.44 1018.74 1018.27 1017.93 1017.36 1017.09 1016.79 1016.25 1015.56 1015.80 1015.56 1015.23 1014.04 1013.76 1013.92 1014.60 1014.87 1015.03 1015.03 1014.72 1014.55 1014.41 1014.13 1013.78 1013.09 1012.69 1012.09 1011.67 1011.36 1011.23 1010.96 1010.66 1010.36 1010.41 1009.48 1009.06
1023.46 1022.87 1022.27 1021.68 1021.12 1020.86 1020.54 1019.98 1019.58 1018.68 1018.35 1018.27 1017.91 1017.41 1016.92 1016.47 1016.04 1015.55 1015.30 1014.85 1015.17 1015.36 1015.46 1015.51 1015.40 1015.06 1014.60 1014.23 1014.14 1013.87 1013.58 1013.35 1013.17 1012.74 1012.09 1011.88 1011.64 1011.71 1011.21 1010.71 1010.11 1009.69 1009.15
1023.66 1023.20 1022.57 1022.08 1021.68 1021.30 1020.92 1020.55 1020.16 1019.69 1019.30 1018.92 1018.45 1017.91 1017.48 1017.20 1016.58 1016.15 1015.93 1015.89 1015.93 1015.77 1015.68 1015.58 1015.40 1014.97 1014.74 1014.85 1014.47 1013.73 1013.26 1012.98 1012.67 1012.53 1012.45 1012.29 1011.98 1011.90 1011.41 1011.07 1010.47 1009.95 1009.42
1023.89 1023.46 1023.02 1022.55 1022.16 1021.79 1021.44 1021.06 1020.61 1020.17 1019.83 1019.38 1018.86 1018.39 1018.10 1017.83 1017.40 1017.12 1016.50 1016.16 1015.89 1015.71 1015.54 1015.42 1015.41 1014.84 1015.17 1014.92 1014.25 1013.39 1012.74 1012.37 1012.54 1012.81 1012.80 1012.65 1012.52 1012.21 1011.78 1011.08 1010.25 1009.81 1009.16
1024.10 1023.78 1023.38 1022.93 1022.56 1022.27 1021.96 1021.50 1021.01 1020.68 1019.92 1018.90 1018.54 1018.52 1018.56 1018.28 1018.22 1017.83 1017.16 1015.95 1015.53 1014.78 1014.87 1015.10 1015.94 1015.96 1015.53 1014.99 1013.99 1012.79 1012.22 1011.83 1012.28 1012.75 1012.69 1012.22 1011.96 1011.02 1011.49 1011.25 1010.75 1010.35 1009.51
1024.40 1023.92 1023.56 1023.18 1022.89 1022.26 1021.85 1021.46 1020.89 1020.07 1019.21 1018.75 1018.30 1018.30 1018.28 1018.55 1018.30 1018.20 1017.66 1016.13 1015.45 1015.05 1014.95 1015.02 1015.92 1016.23 1015.66 1014.95 1014.19 1013.68 1013.29 1013.03 1012.84 1012.92 1012.26 1011.82 1011.30 1011.02 1010.89 1011.02 1011.19 1010.85 1010.32
1024.19 1023.94 1023.22 1022.80 1022.25 1021.80 1021.26 1020.68 1020.27 1019.49 1019.00 1018.55 1018.14 1017.86 1018.05 1018.29 1018.66 1018.58 1018.21 1017.68 1016.95 1015.98 1016.06 1016.08 1016.17 1016.22 1015.84 1015.18 1014.53 1014.22 1013.75 1013.29 1012.64 1012.22 1011.99 1011.92 1011.43 1011.17 1011.04 1011.12 1011.14 1010.90 1010.72
1023.95 1023.47 1023.31 1022.83 1022.19 1021.72 1021.35 1020.81 1020.19 1019.80 1019.29 1018.93 1018.50 1018.29 1018.28 1018.31 1018.14 1018.43 1018.32 1018.05 1017.74 1016.96 1016.91 1016.82 1016.46 1015.98 1015.34 1014.94 1014.69 1014.05 1013.39 1012.77 1012.69 1012.44 1012.28 1011.94 1011.98 1011.87 1011.60 1011.02 1010.56 1010.36 1010.42
1023.55 1023.13 1022.79 1022.73 1022.29 1022.22 1021.86 1021.42 1021.45 1021.28 1020.65 1020.18 1019.76 1019.19 1019.16 1019.40 1019.59 1019.28 1018.23 1017.69 1017.70 1017.16 1016.86 1016.29 1016.10 1015.66 1015.21 1014.71 1014.11 1013.98 1013.93 1013.81 1013.60 1013.36 1013.01 1012.45 1012.15 1011.90 1011.90 1011.60 1010.98 1011.00 1010.93
1023.42 1023.16 1022.68 1022.57 1022.52 1022.60 1023.41 1023.71 1023.10 1023.90 1023.66 1022.47 1021.81 1021.11 1020.77 1020.85 1021.65 1021.62 1020.55 1019.38 1018.83 1018.15 1017.26 1016.31 1015.78 1015.30 1014.88 1014.48 1014.09 1013.81 1013.45 1013.29 1013.63 1013.67 1013.48 1012.94 1012.59 1012.19 1011.91 1012.31 1012.04 1011.47 1011.45
1023.51 1023.29 1023.47 1022.73 1022.50 1022.44 1022.81 1024.03 1024.97 1024.66 1024.28 1024.08 1023.77 1023.23 1022.49 1023.07 1022.71 1021.99 1021.14 1020.30 1019.44 1018.41 1017.27 1016.76 1016.32 1015.88 1015.44 1015.00 1014.55 1014.13 1013.77 1013.70 1013.31 1013.66 1013.59 1013.59 1013.19 1012.95 1012.70 1012.51 1012.37 1011.90 1011.59
1024.13 1023.83 1023.10 1022.92 1022.70 1022.52 1022.54 1022.71 1023.31 1024.60 1024.25 1024.21 1024.28 1023.97 1023.73 1023.41 1022.73 1022.13 1021.28 1020.53 1019.74 1018.42 1017.76 1017.26 1016.85 1016.44 1016.02 1015.57 1015.12 1014.69 1014.26 1014.23 1013.89 1013.53 1013.93 1013.89 1014.03 1013.63 1013.32 1012.92 1012.60 1012.20 1011.79
1024.11 1024.35 1023.30 1023.16 1022.93 1022.61 1022.60 1022.55 1022.56 1022.75 1022.99 1023.17 1024.04 1023.91 1023.76 1023.37 1022.77 1022.16 1021.11 1019.92 1019.17 1018.68 1018.15 1017.81 1017.40 1017.01 1016.60 1016.11 1015.60 1015.07 1014.71 1014.52 1014.16 1014.43 1014.51 1014.67 1014.50 1014.04 1013.56 1013.24 1012.87 1012.43 1012.14
1024.04 1023.90 1023.55 1023.40 1023.37 1023.25 1022.67 1022.37 1022.35 1022.52 1022.57 1022.62 1022.62 1023.00 1023.05 1022.88 1022.38 1021.89 1021.17 1020.21 1019.60 1019.15 1018.78 1018.30 1018.05 1017.65 1017.14 1016.65 1016.14 1015.60 1015.25 1014.96 1014.71 1014.87 1015.19 1015.17 1014.82 1014.33 1013.82 1013.37 1012.95 1012.71 1012.42
1024.23 1024.70 1024.26 1023.29 1023.02 1022.83 1022.70 1022.46 1022.42 1022.51 1022.57 1022.76 1023.02 1023.24 1022.89 1022.01 1021.78 1021.39 1021.07 1020.70 1020.17 1019.83 1019.58 1019.01 1018.59 1018.18 1017.71 1017.32 1016.81 1016.27 1015.76 1015.30 1015.20 1015.44 1015.57 1015.42 1014.99 1014.47 1013.97 1013.52 1013.08 1012.74 1012.46
1023.85 1023.92 1024.17 1023.24 1023.14 1023.01 1022.89 1022.78 1022.67 1022.55 1022.55 1022.74 1023.11 1023.88 1023.70 1022.61 1021.93 1021.65 1021.38 1021.07 1020.77 1020.46 1020.25 1019.72 1019.09 1018.74 1018.34 1017.97 1017.57 1016.98 1016.46 1015.98 1015.69 1016.13 1015.94 1015.56 1015.12 1014.57 1014.07 1013.56 1013.22 1012.89 1012.80
1023.66 1023.64 1023.51 1023.29 1023.23 1023.24 1023.14 1022.93 1022.75 1022.65 1022.63 1022.56 1022.61 1023.06 1023.12 1022.40 1022.15 1021.99 1021.85 1021.60 1021.28 1020.99 1020.73 1020.37 1019.79 1019.45 1019.15 1018.69 1018.25 1017.51 1017.16 1016.80 1016.35 1016.70 1016.32 1015.78 1015.26 1014.71 1014.16 1013.64 1013.32 1013.12 1013.09
1023.55 1023.57 1023.34 1023.22 1023.28 1023.79 1023.09 1022.94 1022.80 1022.70 1022.66 1022.70 1022.70 1022.70 1022.66 1022.58 1022.49 1022.35 1022.21 1022.02 1021.72 1021.50 1021.20 1020.94 1020.56 1020.18 1020.00 1019.42 1018.92 1018.23 1018.12 1017.85 1017.32 1017.01 1016.67 1016.03 1015.40 1014.91 1014.34 1013.87 1013.57 1013.45 1013.47
1023.30 1023.43 1023.33 1023.17 1023.17 1023.05 1023.16 1023.04 1022.91 1023.47 1022.97 1022.67 1022.81 1022.86 1022.83 1022.79 1022.68 1022.64 1022.45 1022.28 1022.08 1021.84 1021.68 1021.42 1021.20 1021.00 1020.69 1020.25 1019.78 1019.26 1019.20 1019.19 1018.11 1017.39 1016.72 1016.18 1015.61 1015.04 1014.55 1014.09 1013.84 1013.75 1013.80
1023.10 1023.27 1023.19 1023.16 1023.21 1023.19 1023.35 1023.02 1022.81 1022.84 1022.80 1022.86 1022.87 1022.84 1022.81 1022.81 1022.74 1022.73 1022.60 1022.42 1022.25 1022.16 1021.99 1021.85 1021.74 1021.48 1021.12 1020.97 1020.85 1020.43 1020.37 1019.72 1018.71 1018.07 1017.00 1016.43 1015.91 1015.31 1014.82 1014.40 1014.10 1013.96 1014.04
1023.17 1023.35 1023.27 1023.16 1023.08 1023.06 1022.99 1022.91 1022.82 1022.81 1022.76 1022.85 1022.91 1022.94 1022.92 1022.82 1022.81 1022.76 1022.66 1022.70 1022.45 1022.30 1022.30 1022.14 1022.03 1021.84 1021.76 1021.50 1021.58 1021.34 1020.72 1019.82 1018.75 1017.99 1017.32 1016.73 1016.23 1015.65 1015.18 1014.74 1014.45 1014.24 1014.32
Thickness
5549 5544 5541 5537 5533 5531 5529 5527 5526 5525 5525 5525 5529 5531 5533 5533 5532 5529 5526 5522 5516 5513 5508 5505 5501 5492 5488 5487 5489 5489 5490 5490 5492 5496 5489 5488 5491 5490 5490 5491 5492 5495 5495
5529 5527 5523 5521 5520 5518 5516 5515 5515 5515 5516 5517 5518 5520 5524 5523 5521 5518 5516 5515 5512 5507 5500 5493 5487 5486 5483 5481 5480 5478 5478 5474 5473 5477 5475 5475 5475 5477 5478 5480 5484 5486 5488
5515 5513 5512 5509 5509 5507 5508 5507 5506 5508 5510 5508 5507 5513 5509 5516 5515 5513 5506 5505 5501 5497 5492 5490 5488 5484 5481 5467 5463 5467 5465 5461 5460 5459 5459 5459 5464 5468 5472 5475 5476 5479 5482
5510 5508 5510 5507 5505 5504 5503 5502 5502 5502 5504 5503 5501 5499 5498 5502 5503 5501 5500 5499 5496 5493 5489 5485 5481 5470 5464 5460 5456 5450 5449 5451 5452 5452 5456 5457 5458 5463 5466 5470 5474 5477 5479
5506 5505 5504 5502 5498 5497 5497 5497 5497 5498 5498 5498 5498 5497 5497 5498 5496 5492 5495 5497 5495 5493 5490 5475 5467 5461 5454 5451 5448 5446 5446 5451 5450 5450 5444 5450 5455 5460 5462 5467 5467 5471 5476
5497 5498 5499 5499 5499 5498 5496 5495 5497 5496 5495 5497 5495 5494 5495 5497 5489 5487 5487 5495 5493 5486 5474 5466 5460 5454 5452 5449 5445 5443 5442 5447 5447 5449 5450 5451 5452 5455 5458 5460 5457 5466 5470
5492 5495 5496 5496 5497 5494 5493 5493 5492 5497 5495 5491 5491 5491 5491 5491 5489 5489 5486 5486 5477 5469 5463 5457 5453 5452 5451 5449 5444 5442 5439 5438 5437 5439 5443 5444 5444 5442 5445 5449 5454 5457 5463
5491 5492 5494 5495 5493 5492 5492 5490 5490 5489 5488 5487 5487 5487 5487 5484 5484 5483 5479 5473 5466 5462 5456 5452 5449 5449 5446 5439 5436 5438 5439 5438 5438 5438 5437 5437 5438 5437 5441 5442 5446 5450 5455
5489 5491 5492 5491 5490 5489 5488 5488 5487 5487 5485 5485 5485 5484 5481 5479 5476 5473 5473 5470 5466 5460 5455 5450 5445 5446 5436 5433 5436 5439 5441 5439 5434 5430 5429 5429 5429 5430 5432 5438 5445 5448 5456
5488 5489 5488 5487 5486 5485 5484 5484 5484 5483 5485 5490 5487 5482 5476 5474 5467 5465 5464 5470 5466 5467 5459 5452 5438 5434 5432 5432 5438 5445 5446 5445 5437 5430 5428 5431 5430 5436 5431 5432 5437 5439 5452
5486 5487 5486 5485 5484 5486 5487 5486 5487 5490 5493 5491 5489 5484 5478 5469 5466 5459 5457 5466 5465 5462 5458 5453 5441 5431 5432 5433 5435 5436 5436 5433 5432 5428 5432 5433 5435 5435 5435 5432 5429 5433 5439
5487 5487 5490 5490 5491 5492 5493 5494 5494 5495 5494 5493 5490 5487 5479 5472 5460 5455 5452 5449 5450 5454 5447 5442 5437 5430 5428 5429 5432 5427 5427 5428 5431 5432 5431 5429 5431 5431 5431 5428 5427 5429 5431
5489 5491 5489 5490 5493 5494 5493 5494 5495 5493 5493 5490 5487 5482 5476 5470 5466 5455 5450 5446 5442 5444 5439 5434 5432 5431 5432 5430 5427 5428 5429 5431 5427 5427 5424 5425 5421 5420 5421 5425 5427 5428 5428
5492 5494 5495 5492 5492 5490 5489 5489 5484 5482 5484 5482 5478 5476 5470 5461 5452 5449 5452 5450 5442 5442 5438 5439 5435 5432 5431 5431 5432 5428 5424 5420 5417 5415 5414 5416 5415 5415 5413 5415 5419 5418 5419
5495 5494 5495 5493 5490 5486 5475 5471 5474 5461 5458 5466 5463 5461 5458 5450 5435 5427 5430 5435 5433 5432 5433 5437 5436 5434 5433 5431 5430 5428 5426 5423 5414 5409 5406 5407 5407 5409 5409 5403 5405 5410 5409
5495 5493 5489 5491 5489 5486 5481 5469 5457 5454 5451 5447 5443 5442 5442 5430 5426 5426 5425 5424 5425 5427 5433 5431 5429 5428 5427 5425 5424 5423 5421 5416 5414 5406 5402 5398 5398 5397 5398 5397 5397 5402 5405
5489 5489 5491 5489 5487 5485 5482 5479 5472 5452 5449 5444 5438 5434 5430 5427 5426 5425 5424 5422 5423 5426 5427 5425 5423 5421 5420 5419 5417 5416 5414 5409 5406 5404 5396 5393 5387 5387 5387 5389 5391 5396 5400
5491 5481 5490 5487 5484 5482 5478 5475 5473 5468 5462 5455 5439 5434 5429 5426 5425 5425 5425 5428 5427 5424 5423 5419 5417 5415 5413 5412 5411 5410 5408 5404 5401 5393 5388 5383 5380 5381 5383 5383 5386 5391 5395
5491 5489 5488 5485 5480 5475 5476 5473 5470 5465 5460 5456 5451 5443 5435 5429 5426 5424 5422 5424 5422 5420 5416 5414 5411 5408 5407 5405 5404 5403 5400 5397 5394 5387 5380 5376 5376 5377 5379 5381 5385 5385 5388
5490 5479 5480 5485 5482 5478 5474 5472 5468 5463 5458 5452 5445 5438 5435 5437 5432 5427 5422 5418 5416 5413 5409 5408 5406 5403 5401 5398 5396 5395 5394 5392 5387 5380 5375 5372 5373 5375 5377 5379 5383 5386 5390
5493 5488 5479 5485 5481 5477 5472 5468 5465 5462 5457 5450 5441 5429 5421 5429 5427 5422 5418 5414 5410 5407 5402 5401 5401 5398 5395 5391 5389 5388 5386 5385 5382 5373 5370 5370 5372 5374 5376 5380 5383 5387 5388
5495 5491 5487 5484 5480 5475 5471 5468 5464 5460 5455 5450 5444 5434 5425 5429 5424 5418 5412 5408 5405 5401 5397 5395 5394 5391 5388 5385 5382 5383 5380 5378 5377 5369 5368 5371 5373 5375 5378 5383 5386 5388 5389
5496 5491 5489 5485 5480 5468 5471 5468 5464 5459 5454 5447 5442 5436 5431 5425 5419 5413 5408 5403 5399 5395 5392 5388 5386 5383 5380 5379 5377 5376 5373 5371 5370 5369 5369 5373 5377 5379 5383 5387 5389 5391 5391
5499 5493 5488 5485 5480 5476 5471 5467 5462 5451 5450 5447 5440 5434 5428 5421 5415 5409 5404 5399 5394 5390 5385 5382 5378 5375 5373 5372 5370 5369 5365 5363 5366 5370 5374 5377 5381 5385 5388 5391 5393 5394 5393
5501 5494 5490 5485 5480 5476 5472 5467 5462 5456 5451 5444 5438 5432 5425 5418 5412 5405 5400 5395 5390 5384 5380 5376 5372 5369 5368 5366 5363 5362 5362 5364 5367 5371 5377 5380 5384 5388 5391 5394 5396 5398 5398
5500 5493 5489 5484 5480 5475 5471 5466 5461 5455 5449 5442 5435 5428 5421 5415 5408 5402 5396 5389 5385 5380 5375 5371 5368 5365 5362 5361 5358 5359 5362 5366 5370 5376 5379 5383 5386 5391 5394 5397 5399 5401 5401